QPF
0.00 0.00 0.00 0.00 0.00 0.00 0.00 0.00 0.00 0.00 0.00 0.00 0.00 0.00 0.00 0.00 0.00 0.00 0.00 0.00 0.00 0.00 0.00 0.00 0.00 0.00 0.00 0.00 0.00 0.00 0.00 0.00 0.00 0.00 0.00 0.00 0.00 0.00 0.00 0.00 0.00 0.00 0.00 0.00 0.00
0.00 0.00 0.00 0.00 0.00 0.00 0.00 0.00 0.00 0.00 0.00 0.00 0.00 0.00 0.00 0.00 0.00 0.00 0.00 0.00 0.00 0.00 0.00 0.00 0.00 0.00 0.00 0.00 0.00 0.00 0.00 0.00 0.00 0.00 0.00 0.00 0.00 0.00 0.00 0.00 0.00 0.00 0.00 0.00 0.00
0.00 0.00 0.00 0.00 0.00 0.00 0.00 0.00 0.00 0.00 0.00 0.00 0.00 0.00 0.00 0.00 0.00 0.00 0.00 0.00 0.00 0.00 0.00 0.00 0.00 0.00 0.00 0.00 0.00 0.00 0.00 0.00 0.00 0.00 0.00 0.00 0.00 0.00 0.00 0.00 0.00 0.00 0.00 0.00 0.00
0.00 0.00 0.00 0.00 0.00 0.00 0.00 0.00 0.00 0.00 0.00 0.00 0.00 0.00 0.00 0.00 0.00 0.00 0.00 0.00 0.00 0.00 0.00 0.00 0.00 0.00 0.00 0.00 0.00 0.00 0.00 0.00 0.00 0.00 0.00 0.00 0.00 0.00 0.00 0.00 0.00 0.00 0.00 0.00 0.00
0.00 0.00 0.00 0.00 0.00 0.00 0.00 0.00 0.00 0.00 0.00 0.00 0.00 0.00 0.00 0.00 0.00 0.00 0.00 0.00 0.00 0.00 0.00 0.00 0.00 0.00 0.00 0.00 0.00 0.00 0.00 0.00 0.00 0.00 0.00 0.00 0.00 0.00 0.00 0.00 0.00 0.00 0.00 0.00 0.00
0.00 0.00 0.00 0.00 0.00 0.00 0.00 0.00 0.00 0.00 0.00 0.00 0.00 0.00 0.00 0.00 0.00 0.00 0.00 0.00 0.00 0.00 0.00 0.00 0.00 0.00 0.00 0.00 0.00 0.00 0.00 0.00 0.00 0.00 0.00 0.00 0.00 0.00 0.00 0.00 0.00 0.00 0.00 0.00 0.00
0.00 0.00 0.00 0.00 0.00 0.00 0.00 0.00 0.00 0.00 0.00 0.00 0.00 0.00 0.00 0.00 0.00 0.00 0.00 0.00 0.00 0.00 0.00 0.00 0.00 0.00 0.00 0.00 0.00 0.00 0.00 0.00 0.00 0.00 0.00 0.00 0.00 0.00 0.00 0.00 0.00 0.00 0.00 0.00 0.00
0.00 0.00 0.00 0.00 0.00 0.00 0.00 0.00 0.00 0.00 0.00 0.00 0.00 0.00 0.00 0.00 0.00 0.00 0.00 0.00 0.00 0.00 0.00 0.00 0.00 0.00 0.00 0.00 0.00 0.00 0.00 0.00 0.00 0.00 0.00 0.00 0.00 0.00 0.00 0.00 0.00 0.00 0.00 0.00 0.00
0.00 0.00 0.00 0.00 0.00 0.00 0.00 0.00 0.00 0.00 0.00 0.00 0.00 0.00 0.00 0.00 0.00 0.00 0.00 0.00 0.00 0.00 0.00 0.00 0.00 0.00 0.00 0.00 0.00 0.00 0.00 0.00 0.00 0.00 0.00 0.00 0.00 0.00 0.00 0.00 0.00 0.00 0.00 0.00 0.00
0.00 0.00 0.00 0.00 0.00 0.00 0.00 0.00 0.00 0.00 0.00 0.00 0.00 0.00 0.00 0.00 0.00 0.00 0.00 0.00 0.00 0.00 0.00 0.00 0.00 0.00 0.00 0.00 0.00 0.00 0.00 0.00 0.00 0.00 0.00 0.00 0.00 0.00 0.00 0.00 0.00 0.00 0.00 0.00 0.00
0.00 0.00 0.00 0.00 0.00 0.00 0.00 0.00 0.00 0.00 0.00 0.00 0.00 0.00 0.00 0.00 0.00 0.00 0.00 0.00 0.00 0.00 0.00 0.00 0.00 0.00 0.00 0.00 0.00 0.00 0.00 0.00 0.00 0.00 0.00 0.00 0.00 0.00 0.00 0.00 0.00 0.00 0.00 0.00 0.00
0.00 0.00 0.00 0.00 0.00 0.00 0.00 0.00 0.00 0.00 0.00 0.00 0.00 0.00 0.00 0.00 0.00 0.00 0.00 0.00 0.00 0.00 0.00 0.00 0.00 0.00 0.00 0.00 0.00 0.00 0.00 0.00 0.00 0.00 0.00 0.00 0.00 0.00 0.00 0.00 0.00 0.00 0.00 0.00 0.00
0.00 0.00 0.00 0.00 0.00 0.00 0.00 0.00 0.00 0.00 0.00 0.00 0.00 0.00 0.00 0.00 0.00 0.00 0.00 0.00 0.00 0.00 0.00 0.00 0.00 0.00 0.00 0.00 0.00 0.00 0.00 0.00 0.00 0.00 0.00 0.00 0.00 0.00 0.00 0.00 0.00 0.00 0.00 0.00 0.00
0.00 0.00 0.00 0.00 0.00 0.00 0.00 0.00 0.00 0.00 0.00 0.00 0.00 0.00 0.00 0.00 0.00 0.00 0.00 0.00 0.00 0.00 0.00 0.00 0.00 0.00 0.00 0.00 0.00 0.00 0.00 0.00 0.00 0.00 0.00 0.00 0.00 0.00 0.00 0.00 0.00 0.00 0.00 0.00 0.00
0.00 0.00 0.00 0.00 0.00 0.00 0.00 0.00 0.00 0.00 0.00 0.00 0.00 0.00 0.00 0.00 0.00 0.00 0.00 0.00 0.00 0.00 0.00 0.00 0.00 0.00 0.00 0.00 0.00 0.00 0.00 0.00 0.00 0.00 0.00 0.00 0.00 0.00 0.00 0.00 0.00 0.00 0.00 0.00 0.00
0.00 0.00 0.00 0.00 0.00 0.00 0.00 0.00 0.00 0.00 0.00 0.00 0.00 0.00 0.00 0.00 0.00 0.00 0.00 0.00 0.00 0.00 0.00 0.00 0.00 0.00 0.00 0.00 0.00 0.00 0.00 0.00 0.00 0.00 0.00 0.00 0.00 0.00 0.00 0.00 0.00 0.00 0.00 0.00 0.00
0.00 0.00 0.00 0.00 0.00 0.00 0.00 0.00 0.00 0.00 0.00 0.00 0.00 0.00 0.00 0.00 0.00 0.00 0.00 0.00 0.00 0.00 0.00 0.00 0.00 0.00 0.00 0.00 0.00 0.00 0.00 0.00 0.00 0.00 0.00 0.00 0.00 0.00 0.00 0.00 0.00 0.00 0.00 0.00 0.00
0.00 0.00 0.00 0.00 0.00 0.00 0.00 0.00 0.00 0.00 0.00 0.00 0.00 0.00 0.00 0.00 0.00 0.00 0.00 0.00 0.00 0.00 0.00 0.00 0.00 0.00 0.00 0.00 0.00 0.00 0.00 0.00 0.00 0.00 0.00 0.00 0.00 0.00 0.00 0.00 0.00 0.00 0.00 0.00 0.00
0.00 0.00 0.00 0.00 0.00 0.00 0.00 0.00 0.00 0.00 0.00 0.00 0.00 0.00 0.00 0.00 0.00 0.00 0.00 0.00 0.00 0.00 0.00 0.00 0.00 0.00 0.00 0.00 0.00 0.00 0.00 0.00 0.00 0.00 0.00 0.00 0.00 0.00 0.00 0.00 0.00 0.00 0.00 0.00 0.00
0.00 0.00 0.00 0.00 0.00 0.00 0.00 0.00 0.00 0.00 0.00 0.00 0.00 0.00 0.00 0.00 0.00 0.00 0.00 0.00 0.00 0.00 0.00 0.00 0.00 0.00 0.00 0.00 0.00 0.00 0.00 0.00 0.02 0.02 0.01 0.00 0.00 0.00 0.00 0.00 0.00 0.00 0.00 0.00 0.00
0.00 0.00 0.00 0.00 0.00 0.00 0.00 0.00 0.00 0.00 0.00 0.00 0.00 0.00 0.00 0.00 0.00 0.00 0.00 0.00 0.00 0.00 0.00 0.00 0.00 0.00 0.00 0.00 0.00 0.00 0.00 0.01 0.02 0.03 0.03 0.01 0.00 0.00 0.00 0.00 0.00 0.00 0.00 0.00 0.00
0.00 0.00 0.00 0.00 0.00 0.00 0.00 0.00 0.00 0.00 0.00 0.00 0.00 0.00 0.00 0.00 0.00 0.00 0.00 0.00 0.00 0.00 0.00 0.00 0.01 0.00 0.00 0.00 0.00 0.00 0.01 0.01 0.02 0.01 0.01 0.01 0.00 0.00 0.00 0.00 0.00 0.00 0.00 0.00 0.00
0.00 0.00 0.00 0.00 0.00 0.00 0.00 0.00 0.00 0.00 0.00 0.00 0.00 0.00 0.00 0.00 0.00 0.00 0.00 0.00 0.00 0.00 0.00 0.01 0.01 0.00 0.00 0.00 0.00 0.00 0.00 0.00 0.01 0.01 0.00 0.01 0.00 0.00 0.00 0.00 0.00 0.00 0.00 0.00 0.00
0.00 0.00 0.00 0.00 0.00 0.00 0.00 0.00 0.00 0.00 0.00 0.00 0.00 0.00 0.00 0.00 0.00 0.00 0.00 0.00 0.00 0.00 0.00 0.02 0.00 0.00 0.00 0.00 0.00 0.00 0.00 0.00 0.00 0.00 0.00 0.00 0.00 0.00 0.00 0.00 0.00 0.00 0.00 0.00 0.00
0.00 0.00 0.00 0.00 0.00 0.00 0.00 0.00 0.00 0.00 0.00 0.00 0.00 0.00 0.00 0.00 0.00 0.00 0.00 0.00 0.00 0.00 0.00 0.00 0.00 0.00 0.00 0.00 0.00 0.00 0.00 0.00 0.00 0.00 0.00 0.00 0.00 0.00 0.00 0.01 0.00 0.00 0.00 0.00 0.00
0.00 0.00 0.00 0.00 0.00 0.00 0.00 0.00 0.00 0.00 0.00 0.00 0.00 0.00 0.00 0.00 0.00 0.00 0.00 0.00 0.00 0.00 0.00 0.00 0.00 0.00 0.00 0.00 0.00 0.00 0.00 0.00 0.00 0.00 0.00 0.00 0.00 0.00 0.00 0.01 0.01 0.00 0.00 0.00 0.00
0.00 0.00 0.00 0.00 0.00 0.00 0.00 0.00 0.00 0.00 0.00 0.00 0.00 0.00 0.00 0.00 0.00 0.00 0.00 0.00 0.00 0.00 0.00 0.00 0.00 0.00 0.00 0.00 0.00 0.00 0.00 0.00 0.01 0.00 0.00 0.00 0.00 0.00 0.01 0.00 0.00 0.00 0.00 0.00 0.00
MSLP
1026.42 1026.01 1025.52 1025.09 1024.72 1024.20 1023.71 1023.25 1022.75 1022.33 1021.86 1021.49 1021.09 1020.47 1020.06 1019.52 1018.87 1018.32 1018.36 1018.91 1018.24 1017.41 1016.47 1015.93 1015.03 1014.82 1014.49 1014.55 1014.34 1014.58 1015.59 1015.61 1014.43 1013.53 1011.84 1010.93 1010.43 1009.54 1009.16 1008.98 1009.05 1009.63 1009.83 1009.83 1010.56
1026.61 1026.10 1025.67 1025.26 1024.86 1024.33 1023.87 1023.48 1022.96 1022.41 1021.89 1021.49 1021.05 1020.48 1020.17 1019.65 1019.43 1018.93 1019.26 1018.55 1017.95 1017.30 1016.85 1016.48 1015.96 1015.48 1015.22 1014.84 1014.57 1014.86 1015.31 1014.65 1013.35 1012.53 1011.90 1011.26 1010.99 1010.54 1010.04 1009.79 1009.81 1010.37 1010.58 1010.49 1010.77
1026.91 1026.32 1025.91 1025.49 1024.96 1024.44 1023.89 1023.57 1023.04 1022.44 1021.85 1021.38 1020.98 1020.48 1019.97 1019.53 1019.56 1019.93 1019.25 1018.65 1017.90 1017.47 1017.16 1016.87 1016.41 1016.01 1015.94 1015.45 1014.97 1014.90 1014.84 1014.13 1013.07 1012.61 1012.21 1011.68 1011.17 1010.78 1010.50 1010.36 1010.05 1010.40 1011.06 1011.25 1011.43
1026.97 1026.39 1026.00 1025.58 1025.01 1024.58 1024.02 1023.52 1023.05 1022.49 1021.73 1021.38 1021.01 1020.41 1019.68 1019.59 1020.70 1020.23 1019.54 1018.91 1018.27 1017.70 1017.41 1017.20 1016.93 1016.66 1016.58 1016.38 1015.94 1015.78 1014.69 1014.41 1013.53 1012.78 1012.61 1012.23 1011.51 1011.09 1010.86 1010.34 1010.08 1010.14 1010.45 1011.22 1011.40
1027.20 1026.71 1026.31 1025.69 1025.06 1024.52 1023.94 1023.33 1022.74 1022.29 1021.67 1021.15 1020.88 1020.42 1019.90 1020.29 1021.14 1020.57 1019.52 1018.95 1018.61 1018.29 1018.00 1017.99 1018.08 1018.17 1017.81 1017.48 1016.75 1016.14 1015.68 1014.85 1014.01 1013.53 1013.07 1012.33 1011.83 1011.34 1010.56 1010.33 1010.19 1010.34 1010.81 1011.08 1011.18
1027.34 1026.99 1026.41 1025.82 1025.14 1024.42 1023.86 1023.03 1022.47 1021.96 1021.54 1021.00 1020.78 1020.40 1020.37 1021.32 1021.27 1020.59 1019.95 1019.30 1019.01 1018.91 1018.76 1018.60 1018.75 1018.67 1018.69 1018.10 1017.88 1017.07 1016.15 1015.33 1014.41 1013.76 1013.13 1012.74 1011.51 1011.31 1010.07 1009.82 1010.13 1010.21 1010.51 1010.66 1010.86
1027.59 1027.14 1026.55 1025.91 1025.20 1024.53 1023.74 1022.87 1022.16 1021.50 1021.17 1020.94 1020.65 1020.61 1020.91 1022.03 1021.31 1020.63 1020.13 1019.78 1019.15 1019.16 1019.10 1018.71 1018.87 1018.91 1018.95 1018.71 1018.00 1017.50 1016.66 1015.70 1014.66 1013.55 1012.66 1012.15 1011.18 1010.82 1009.70 1009.91 1009.61 1009.45 1009.50 1009.81 1009.77
1027.87 1027.43 1026.81 1026.18 1025.41 1024.47 1023.46 1022.55 1021.65 1020.95 1020.93 1020.96 1020.69 1020.89 1021.38 1021.32 1021.02 1020.51 1020.32 1019.72 1018.87 1018.89 1018.83 1018.60 1018.68 1019.09 1019.27 1019.04 1018.41 1018.14 1017.61 1016.80 1014.97 1014.19 1013.14 1012.84 1010.83 1010.69 1009.95 1010.15 1009.78 1009.21 1008.90 1009.12 1009.01
1027.96 1027.42 1026.91 1026.23 1025.46 1024.40 1023.33 1022.44 1021.71 1021.08 1020.93 1020.75 1021.01 1021.28 1021.91 1021.46 1021.29 1021.06 1020.75 1020.38 1019.40 1019.01 1018.80 1018.48 1018.87 1019.61 1019.95 1020.14 1019.91 1019.55 1019.23 1018.31 1016.79 1015.59 1014.61 1013.82 1011.82 1010.94 1010.14 1010.08 1009.52 1009.12 1008.49 1008.69 1008.46
1028.19 1027.61 1026.91 1026.21 1025.42 1024.46 1023.22 1022.27 1022.10 1021.45 1021.37 1021.12 1021.68 1022.22 1022.65 1022.75 1022.02 1021.56 1020.90 1020.53 1020.46 1020.24 1019.85 1020.00 1020.33 1021.18 1022.32 1022.47 1022.73 1022.10 1021.20 1019.98 1018.95 1017.20 1015.40 1014.20 1012.71 1011.90 1011.02 1010.13 1009.55 1008.72 1008.01 1007.96 1007.83
1028.42 1027.78 1027.12 1026.46 1025.75 1024.86 1023.63 1022.93 1023.91 1023.46 1023.72 1024.47 1024.40 1024.08 1023.55 1022.88 1022.17 1021.90 1021.40 1021.14 1021.23 1021.61 1022.36 1022.11 1022.62 1023.87 1024.06 1024.06 1024.08 1023.39 1022.35 1020.98 1019.66 1018.61 1017.08 1014.94 1013.27 1012.07 1010.72 1009.47 1008.84 1008.19 1007.63 1007.01 1006.92
1028.46 1027.92 1027.23 1026.43 1025.92 1025.65 1025.31 1025.57 1026.73 1027.26 1026.08 1024.77 1024.48 1024.22 1023.58 1023.16 1022.90 1022.65 1022.28 1022.29 1022.67 1023.33 1023.49 1023.40 1024.14 1024.48 1024.33 1024.14 1023.85 1023.37 1022.60 1021.44 1019.73 1018.73 1018.01 1015.93 1012.06 1012.40 1010.62 1008.82 1007.77 1007.18 1006.44 1005.86 1005.99
1028.63 1028.11 1027.51 1026.79 1026.09 1026.20 1026.65 1026.92 1026.77 1026.81 1026.92 1025.56 1024.75 1024.21 1023.67 1023.50 1023.47 1023.38 1023.14 1023.14 1023.45 1024.02 1024.40 1024.70 1024.94 1024.58 1024.55 1024.33 1023.60 1023.38 1023.18 1022.14 1021.20 1020.04 1019.03 1017.03 1011.72 1009.91 1007.77 1007.49 1006.60 1005.42 1004.98 1004.69 1004.67
1028.86 1028.35 1027.83 1027.09 1026.89 1026.98 1026.94 1027.01 1026.77 1026.83 1027.44 1026.30 1025.00 1024.61 1024.08 1023.86 1024.12 1023.90 1023.65 1023.97 1024.31 1024.83 1025.25 1025.40 1025.09 1024.91 1024.62 1024.44 1024.00 1022.83 1023.07 1022.60 1021.89 1021.19 1019.71 1018.04 1013.24 1008.62 1007.54 1006.00 1005.29 1003.88 1004.09 1004.07 1004.01
1028.94 1028.38 1027.77 1027.41 1028.03 1027.72 1027.62 1026.95 1026.62 1027.20 1027.83 1026.91 1025.69 1025.02 1024.94 1025.10 1025.50 1024.90 1024.27 1024.24 1024.94 1025.53 1026.01 1026.18 1025.45 1024.72 1024.60 1024.39 1024.08 1023.40 1023.31 1022.78 1022.23 1021.45 1020.33 1017.78 1016.80 1006.52 1006.58 1005.52 1003.41 1004.08 1003.65 1003.44 1003.34
1028.86 1028.24 1027.71 1027.79 1028.02 1027.59 1027.35 1026.99 1027.16 1028.38 1029.00 1027.79 1026.97 1026.63 1026.29 1026.29 1026.22 1025.96 1025.37 1025.26 1025.64 1026.14 1026.39 1026.37 1025.38 1024.91 1024.48 1024.36 1024.09 1023.37 1023.42 1022.47 1021.45 1021.13 1018.68 1016.48 1015.93 1007.94 1006.42 1004.64 1004.06 1003.28 1002.65 1002.39 1002.31
1028.92 1028.33 1028.04 1027.97 1028.29 1027.57 1027.48 1027.97 1029.47 1029.67 1030.11 1029.29 1028.55 1028.07 1027.89 1027.80 1027.51 1027.39 1027.13 1027.05 1027.60 1027.53 1027.27 1026.40 1025.62 1024.91 1024.21 1024.25 1023.89 1023.39 1023.50 1022.84 1021.76 1020.35 1017.34 1015.41 1014.32 1007.31 1005.75 1004.39 1003.54 1002.90 1002.20 1001.73 1001.40
1029.06 1028.63 1028.79 1028.65 1028.30 1027.84 1028.35 1029.78 1030.99 1031.86 1030.71 1029.97 1029.55 1029.03 1029.18 1029.29 1029.17 1029.01 1028.77 1028.91 1028.43 1028.77 1028.75 1027.87 1026.52 1025.64 1024.54 1024.77 1024.22 1023.29 1023.58 1023.44 1021.52 1019.43 1017.00 1015.31 1011.77 1006.78 1005.31 1004.24 1003.54 1001.70 1001.85 1001.40 1000.95
1029.34 1029.46 1029.51 1029.02 1028.52 1028.44 1029.50 1031.93 1033.19 1032.18 1031.21 1030.54 1030.20 1030.48 1030.64 1030.54 1030.78 1030.57 1030.08 1029.78 1029.27 1029.47 1030.20 1028.82 1027.23 1025.54 1024.89 1024.03 1023.78 1023.00 1022.59 1021.79 1020.87 1018.88 1017.45 1014.26 1009.84 1006.91 1005.99 1003.64 1002.56 1001.36 1000.92 1000.54 1000.39
1030.34 1030.43 1029.99 1029.44 1029.06 1029.54 1030.87 1033.14 1033.22 1032.07 1031.36 1030.84 1031.24 1031.66 1032.01 1031.94 1032.10 1031.88 1031.09 1030.17 1029.93 1029.89 1030.12 1030.21 1027.58 1025.77 1024.29 1023.51 1022.90 1022.84 1022.33 1021.25 1020.05 1017.87 1015.11 1012.24 1009.68 1006.88 1005.33 1002.71 1002.40 1001.33 1000.59 999.59 999.88
1031.04 1031.47 1030.66 1029.94 1029.95 1031.44 1033.66 1034.08 1033.06 1031.98 1031.52 1031.50 1031.77 1032.21 1032.59 1032.96 1033.04 1032.88 1031.93 1030.74 1030.21 1030.18 1030.21 1029.90 1029.40 1026.40 1025.06 1024.43 1023.36 1022.41 1022.22 1021.91 1020.11 1018.29 1015.57 1012.63 1009.58 1006.99 1004.64 1003.00 1002.54 1001.86 1000.99 1000.35 1000.26
1032.67 1032.52 1031.33 1030.63 1031.94 1033.83 1034.84 1034.29 1032.96 1032.23 1031.61 1031.51 1031.89 1032.37 1032.92 1033.15 1033.74 1033.59 1032.39 1031.27 1030.34 1030.59 1030.61 1029.90 1029.44 1028.07 1025.59 1023.38 1022.85 1022.65 1022.46 1022.14 1021.00 1018.96 1016.95 1014.35 1009.66 1006.25 1005.15 1004.28 1003.94 1002.32 1001.74 1001.49 1001.02
1034.00 1033.88 1032.08 1031.77 1034.34 1035.47 1035.48 1034.96 1033.99 1032.98 1032.33 1032.02 1032.17 1032.39 1032.99 1033.35 1033.54 1033.12 1032.39 1030.93 1030.57 1030.65 1030.38 1030.11 1029.95 1028.97 1026.29 1023.40 1022.92 1022.55 1022.16 1022.01 1021.49 1019.86 1016.26 1014.53 1009.51 1005.82 1006.26 1005.54 1003.84 1002.74 1002.32 1001.25 1000.65
1034.62 1035.00 1034.16 1033.91 1035.31 1036.08 1036.17 1035.56 1034.67 1033.18 1032.61 1032.18 1031.95 1032.10 1032.93 1032.98 1032.75 1032.45 1032.03 1030.98 1029.98 1029.91 1029.37 1029.51 1030.04 1029.82 1029.10 1026.52 1025.32 1023.49 1021.06 1021.12 1021.10 1019.13 1016.10 1013.21 1009.46 1006.74 1007.04 1005.28 1003.86 1002.75 1002.47 1002.04 1000.34
1035.21 1036.29 1036.14 1036.95 1036.57 1036.66 1036.53 1035.62 1034.88 1033.71 1032.76 1032.39 1032.30 1032.31 1032.56 1032.36 1032.17 1031.63 1030.85 1030.48 1029.68 1029.04 1028.88 1029.71 1029.90 1029.30 1028.31 1026.83 1025.48 1023.84 1022.16 1020.45 1019.67 1017.66 1015.72 1012.89 1010.04 1009.24 1008.01 1006.60 1004.19 1004.25 1003.37 1002.66 1001.10
1035.35 1036.07 1036.68 1036.99 1036.61 1036.78 1036.15 1035.54 1034.58 1033.66 1033.16 1032.43 1032.22 1031.93 1031.66 1031.44 1031.15 1030.29 1029.95 1029.57 1029.18 1028.54 1028.68 1029.27 1028.93 1028.72 1028.30 1026.09 1025.14 1023.23 1021.21 1019.72 1018.14 1016.73 1015.49 1013.66 1011.54 1010.39 1007.91 1005.49 1004.87 1004.40 1004.20 1003.40 1002.64
1035.19 1035.37 1036.00 1036.42 1036.57 1036.70 1036.00 1034.92 1034.11 1033.57 1032.33 1031.95 1031.72 1031.32 1030.63 1029.71 1029.12 1028.74 1028.47 1028.30 1027.92 1028.03 1027.91 1028.68 1028.79 1028.81 1027.94 1026.02 1025.03 1022.69 1019.40 1018.04 1017.43 1016.83 1016.02 1014.35 1012.91 1010.89 1007.34 1006.02 1005.66 1004.90 1004.34 1004.51 1003.79
Thickness
5557 5559 5561 5564 5566 5569 5571 5574 5577 5579 5582 5585 5588 5593 5596 5600 5605 5608 5606 5601 5607 5614 5623 5626 5635 5636 5640 5637 5642 5638 5619 5618 5634 5635 5651 5658 5662 5677 5681 5683 5686 5684 5690 5697 5694
5548 5551 5554 5556 5558 5561 5564 5566 5569 5572 5575 5578 5580 5585 5586 5590 5594 5595 5592 5597 5602 5607 5612 5615 5618 5623 5622 5629 5630 5624 5608 5623 5638 5645 5651 5651 5655 5657 5665 5665 5675 5672 5676 5684 5685
5539 5542 5544 5546 5549 5553 5556 5557 5561 5565 5568 5570 5573 5576 5580 5583 5586 5578 5584 5588 5594 5598 5602 5604 5609 5614 5613 5618 5621 5619 5613 5625 5639 5640 5642 5645 5645 5655 5657 5656 5665 5667 5664 5670 5671
5532 5535 5537 5539 5541 5543 5546 5549 5552 5556 5562 5562 5563 5567 5573 5574 5574 5569 5573 5578 5582 5589 5591 5592 5595 5600 5600 5601 5602 5601 5617 5617 5626 5634 5629 5630 5642 5644 5647 5656 5663 5669 5666 5664 5666
5523 5525 5526 5529 5532 5535 5538 5541 5545 5548 5552 5554 5555 5558 5562 5555 5550 5555 5564 5569 5571 5574 5575 5573 5572 5569 5574 5578 5586 5593 5599 5606 5613 5615 5618 5623 5628 5636 5645 5652 5654 5660 5656 5659 5662
5513 5513 5516 5519 5522 5526 5529 5533 5537 5540 5542 5545 5544 5547 5547 5530 5540 5544 5550 5555 5557 5557 5556 5557 5557 5558 5558 5565 5567 5576 5583 5592 5601 5607 5610 5610 5626 5627 5649 5650 5645 5648 5651 5654 5657
5502 5503 5506 5509 5513 5515 5520 5524 5528 5533 5534 5534 5533 5534 5528 5518 5527 5533 5536 5539 5544 5542 5540 5544 5544 5544 5544 5544 5556 5564 5569 5578 5590 5600 5606 5611 5618 5619 5644 5641 5644 5648 5652 5654 5659
5490 5491 5493 5496 5501 5504 5511 5515 5521 5525 5524 5522 5522 5519 5511 5515 5516 5522 5522 5527 5532 5530 5529 5532 5531 5530 5530 5533 5540 5546 5550 5552 5580 5580 5591 5593 5609 5618 5627 5624 5632 5641 5650 5650 5656
5479 5480 5482 5485 5490 5494 5500 5504 5508 5512 5512 5511 5509 5504 5495 5500 5500 5503 5506 5507 5513 5514 5517 5522 5519 5512 5511 5508 5504 5513 5512 5525 5543 5557 5563 5573 5583 5608 5612 5612 5620 5629 5642 5643 5651
5466 5467 5470 5474 5479 5483 5488 5494 5493 5498 5497 5495 5491 5484 5477 5472 5479 5484 5489 5493 5491 5489 5493 5491 5484 5473 5463 5461 5466 5473 5475 5495 5502 5526 5546 5560 5566 5584 5599 5608 5615 5628 5635 5637 5646
5452 5454 5457 5460 5465 5469 5477 5477 5463 5466 5460 5448 5447 5450 5454 5458 5464 5465 5470 5472 5470 5466 5452 5459 5450 5431 5433 5442 5443 5448 5458 5467 5484 5497 5502 5535 5543 5566 5588 5604 5612 5620 5628 5637 5642
5442 5443 5446 5450 5451 5452 5453 5445 5432 5425 5423 5441 5443 5441 5444 5446 5445 5449 5453 5450 5445 5439 5439 5435 5429 5429 5435 5432 5430 5433 5434 5448 5473 5487 5485 5500 5536 5537 5570 5596 5612 5620 5633 5646 5642
5431 5432 5433 5435 5437 5437 5430 5423 5421 5419 5403 5425 5433 5434 5434 5435 5433 5431 5437 5435 5430 5427 5419 5415 5420 5427 5420 5416 5424 5426 5415 5422 5431 5449 5457 5473 5524 5557 5588 5592 5608 5626 5637 5646 5649
5419 5420 5422 5422 5421 5416 5414 5411 5409 5407 5366 5414 5421 5418 5419 5421 5413 5422 5424 5421 5416 5411 5409 5405 5410 5407 5405 5402 5408 5417 5410 5412 5416 5414 5413 5451 5480 5551 5571 5590 5604 5629 5630 5634 5638
5408 5408 5409 5407 5400 5398 5397 5400 5399 5391 5337 5397 5403 5405 5401 5399 5396 5402 5409 5409 5403 5398 5396 5389 5391 5393 5388 5385 5390 5398 5390 5396 5401 5403 5400 5435 5423 5554 5556 5576 5613 5606 5616 5620 5626
5396 5397 5395 5392 5388 5387 5386 5387 5384 5344 5309 5372 5381 5375 5377 5381 5382 5386 5390 5391 5390 5387 5386 5379 5382 5377 5376 5367 5372 5382 5364 5380 5392 5388 5387 5433 5422 5495 5544 5573 5582 5594 5609 5616 5624
5382 5383 5381 5378 5372 5375 5373 5364 5333 5319 5345 5355 5358 5359 5360 5362 5366 5366 5365 5360 5348 5323 5350 5369 5373 5366 5362 5348 5350 5352 5330 5294 5302 5359 5377 5430 5401 5479 5531 5549 5561 5576 5589 5602 5614
5369 5369 5365 5362 5362 5364 5356 5330 5298 5282 5336 5350 5345 5348 5345 5345 5345 5345 5342 5327 5346 5334 5307 5319 5300 5343 5347 5321 5317 5331 5323 5313 5305 5350 5377 5399 5413 5486 5508 5525 5539 5568 5579 5590 5601
5358 5357 5350 5351 5351 5351 5329 5290 5276 5313 5338 5335 5328 5324 5314 5333 5323 5324 5321 5319 5333 5323 5298 5301 5328 5338 5328 5326 5318 5319 5315 5337 5321 5332 5328 5367 5420 5461 5476 5508 5530 5552 5564 5572 5588
5346 5340 5341 5340 5340 5333 5307 5294 5290 5323 5323 5328 5306 5297 5306 5310 5299 5292 5297 5319 5316 5314 5294 5279 5305 5325 5332 5327 5330 5320 5331 5328 5342 5352 5362 5388 5396 5425 5462 5499 5510 5525 5546 5574 5577
5334 5317 5329 5330 5329 5310 5279 5254 5302 5317 5317 5297 5300 5305 5292 5286 5285 5283 5296 5307 5308 5298 5293 5281 5267 5308 5312 5306 5307 5317 5317 5318 5335 5346 5360 5370 5390 5434 5462 5490 5489 5492 5512 5535 5550
5314 5296 5320 5321 5299 5257 5274 5267 5312 5309 5310 5304 5290 5284 5298 5291 5258 5252 5285 5282 5295 5283 5260 5279 5247 5269 5295 5318 5322 5316 5314 5317 5313 5324 5334 5342 5370 5444 5458 5460 5457 5480 5489 5497 5520
5310 5298 5312 5310 5280 5264 5268 5272 5285 5295 5299 5298 5287 5288 5263 5280 5275 5255 5239 5273 5270 5261 5245 5256 5222 5230 5263 5311 5315 5298 5312 5313 5307 5314 5335 5338 5381 5450 5430 5432 5456 5473 5475 5493 5509
5294 5287 5287 5289 5275 5269 5262 5265 5268 5285 5285 5293 5296 5291 5263 5261 5268 5267 5265 5269 5274 5266 5282 5259 5240 5237 5239 5274 5286 5286 5314 5311 5305 5311 5334 5354 5379 5423 5416 5432 5452 5464 5468 5476 5505
5284 5269 5273 5260 5259 5253 5262 5248 5263 5265 5281 5277 5278 5270 5272 5269 5245 5260 5271 5256 5267 5276 5259 5247 5229 5225 5258 5272 5278 5282 5293 5305 5308 5329 5337 5360 5370 5382 5386 5404 5438 5443 5454 5467 5486
5281 5272 5267 5255 5272 5258 5269 5248 5269 5268 5267 5269 5263 5276 5271 5267 5255 5265 5272 5273 5264 5269 5248 5224 5250 5228 5242 5274 5270 5282 5298 5311 5327 5340 5335 5347 5358 5366 5383 5418 5424 5432 5440 5452 5466
5287 5286 5279 5271 5245 5242 5247 5267 5273 5270 5277 5274 5267 5267 5267 5271 5277 5274 5276 5273 5272 5264 5261 5240 5226 5214 5233 5258 5239 5248 5308 5325 5325 5329 5322 5333 5341 5356 5394 5407 5411 5422 5433 5436 5448